GLD740 MDPP-MYNN

Flight info

Callsign GLD740
Flight time 1h 35m
Altitude 40000
Route MALVN3C MALVN Y396 BITAC
Aircraft LJ35/M-SGHRWXY/SB1

Departure

Time 2026-05-05 23:32
Airport Gregorio Luperon International Airport (MDPP)

Arrival

Time 2026-05-06 01:07
Airport Lynden Pindling International Airport (MYNN)
Time Latitude Longitude Altitude Speed Heading
2026-05-05 22:54 19.75411 -70.56502 36 ft 0 kts 342°
2026-05-05 23:00 19.75411 -70.56501 36 ft 0 kts 342°
2026-05-05 23:02 19.75410 -70.56501 36 ft 0 kts 342°
2026-05-05 23:18 19.75409 -70.56501 37 ft 0 kts 342°
2026-05-05 23:26 19.75422 -70.56505 36 ft 6 kts 343°
2026-05-05 23:26 19.75451 -70.56540 36 ft 8 kts 292°
2026-05-05 23:26 19.75472 -70.56583 36 ft 7 kts 320°
2026-05-05 23:26 19.75526 -70.56597 36 ft 10 kts 352°
2026-05-05 23:27 19.75612 -70.56614 28 ft 13 kts 336°
2026-05-05 23:27 19.75632 -70.56671 25 ft 10 kts 257°
2026-05-05 23:27 19.75609 -70.56753 25 ft 13 kts 255°
2026-05-05 23:27 19.75575 -70.56864 23 ft 19 kts 251°
2026-05-05 23:28 19.75546 -70.56973 19 ft 15 kts 252°
2026-05-05 23:28 19.75544 -70.57065 17 ft 13 kts 327°
2026-05-05 23:28 19.75598 -70.57119 16 ft 9 kts 313°
2026-05-05 23:28 19.75647 -70.57174 16 ft 0 kts 314°
2026-05-05 23:29 19.75659 -70.57188 16 ft 7 kts 315°
2026-05-05 23:30 19.75704 -70.57270 16 ft 20 kts 273°
2026-05-05 23:30 19.75652 -70.57464 15 ft 31 kts 251°
2026-05-05 23:30 19.75587 -70.57694 18 ft 34 kts 252°
2026-05-05 23:30 19.75512 -70.57949 24 ft 38 kts 254°
2026-05-05 23:31 19.75433 -70.58221 23 ft 36 kts 253°
2026-05-05 23:31 19.75401 -70.58379 22 ft 10 kts 191°
2026-05-05 23:31 19.75407 -70.58320 22 ft 22 kts 73°
2026-05-05 23:31 19.75540 -70.57855 23 ft 108 kts 73°
2026-05-05 23:32 19.75813 -70.56884 232 ft 161 kts 77°
2026-05-05 23:32 19.76110 -70.55637 966 ft 182 kts 79°
2026-05-05 23:32 19.76519 -70.54332 1886 ft 195 kts 75°
2026-05-05 23:32 19.77078 -70.52962 2728 ft 212 kts 60°
2026-05-05 23:33 19.78187 -70.51862 3582 ft 227 kts 34°
2026-05-05 23:33 19.79711 -70.51253 4450 ft 247 kts 16°
2026-05-05 23:33 19.81421 -70.50742 5467 ft 259 kts 16°
2026-05-05 23:33 19.83213 -70.50178 6001 ft 276 kts 16°
2026-05-05 23:34 19.85043 -70.49594 6011 ft 274 kts 16°
2026-05-05 23:34 19.86864 -70.49017 6010 ft 272 kts 16°
2026-05-05 23:34 19.88671 -70.48448 6012 ft 270 kts 16°
2026-05-05 23:34 19.90478 -70.47876 6017 ft 272 kts 16°
2026-05-05 23:35 19.92347 -70.47396 6325 ft 278 kts
2026-05-05 23:35 19.94276 -70.47362 7224 ft 280 kts 354°
2026-05-05 23:35 19.96170 -70.47845 8455 ft 284 kts 338°
2026-05-05 23:35 19.97905 -70.48903 9599 ft 292 kts 320°
2026-05-05 23:36 19.99303 -70.50476 10742 ft 294 kts 303°
2026-05-05 23:36 20.00213 -70.52399 12014 ft 291 kts 287°
2026-05-05 23:36 20.00567 -70.54508 13259 ft 291 kts 271°
2026-05-05 23:36 20.00626 -70.56666 14402 ft 294 kts 271°
2026-05-05 23:37 20.00690 -70.58853 15459 ft 297 kts 271°
2026-05-05 23:37 20.00757 -70.61065 16524 ft 301 kts 271°
2026-05-05 23:37 20.00821 -70.63303 17605 ft 305 kts 271°
2026-05-05 23:37 20.00886 -70.65565 18649 ft 307 kts 271°
2026-05-05 23:38 20.00952 -70.67856 19536 ft 313 kts 271°
2026-05-05 23:38 20.01020 -70.70184 20378 ft 317 kts 272°
2026-05-05 23:38 20.01087 -70.72517 20940 ft 323 kts 272°
2026-05-05 23:38 20.01156 -70.74916 21555 ft 327 kts 272°
2026-05-05 23:39 20.01225 -70.77343 22201 ft 330 kts 272°
2026-05-05 23:39 20.01294 -70.79799 22973 ft 334 kts 272°
2026-05-05 23:39 20.01365 -70.82285 23741 ft 339 kts 272°
2026-05-05 23:39 20.01435 -70.84803 24443 ft 342 kts 272°
2026-05-05 23:40 20.01506 -70.87340 25177 ft 344 kts 272°
2026-05-05 23:40 20.01577 -70.89895 25905 ft 347 kts 272°
2026-05-05 23:40 20.01648 -70.92470 26630 ft 350 kts 272°
2026-05-05 23:40 20.01719 -70.95069 27361 ft 353 kts 272°
2026-05-05 23:41 20.01791 -70.97686 28075 ft 356 kts 272°
2026-05-05 23:41 20.01863 -71.00333 28787 ft 359 kts 272°
2026-05-05 23:41 20.01935 -71.03000 29490 ft 363 kts 272°
2026-05-05 23:41 20.02007 -71.05690 30163 ft 366 kts 273°
2026-05-05 23:42 20.02129 -71.08400 30707 ft 368 kts 278°
2026-05-05 23:42 20.02723 -71.11053 31242 ft 371 kts 289°
2026-05-05 23:42 20.03836 -71.13542 31746 ft 376 kts 300°
2026-05-05 23:42 20.05441 -71.15758 32248 ft 382 kts 311°
2026-05-05 23:43 20.07493 -71.17588 32662 ft 392 kts 323°
2026-05-05 23:43 20.09845 -71.19090 33260 ft 393 kts 326°
2026-05-05 23:43 20.12191 -71.20562 33965 ft 391 kts 326°
2026-05-05 23:43 20.14524 -71.22042 34531 ft 390 kts 326°
2026-05-05 23:44 20.16845 -71.23518 35103 ft 388 kts 326°
2026-05-05 23:44 20.19163 -71.24985 35655 ft 387 kts 326°
2026-05-05 23:44 20.21473 -71.26446 36204 ft 385 kts 325°
2026-05-05 23:44 20.23770 -71.27903 36748 ft 384 kts 325°
2026-05-05 23:45 20.26060 -71.29356 37278 ft 382 kts 325°
2026-05-05 23:45 20.28339 -71.30802 37801 ft 381 kts 325°
2026-05-05 23:45 20.30611 -71.32243 38318 ft 380 kts 325°
2026-05-05 23:45 20.32877 -71.33682 38795 ft 378 kts 324°
2026-05-05 23:46 20.35135 -71.35116 39195 ft 377 kts 324°
2026-05-05 23:46 20.37382 -71.36544 39587 ft 376 kts 324°
2026-05-05 23:46 20.39596 -71.37951 39969 ft 375 kts 324°
2026-05-05 23:46 20.41706 -71.39591 40025 ft 378 kts 313°
2026-05-05 23:47 20.45139 -71.43929 40041 ft 391 kts 305°
2026-05-05 23:47 20.48598 -71.48558 40044 ft 406 kts 306°
2026-05-05 23:48 20.52163 -71.53347 40038 ft 417 kts 306°
2026-05-05 23:48 20.55790 -71.58218 40043 ft 421 kts 306°
2026-05-05 23:49 20.59419 -71.63098 40046 ft 418 kts 306°
2026-05-05 23:49 20.63028 -71.67955 40044 ft 417 kts 306°
2026-05-05 23:50 20.66633 -71.72811 40045 ft 417 kts 306°
2026-05-05 23:50 20.70232 -71.77664 40047 ft 417 kts 306°
2026-05-05 23:51 20.73831 -71.82519 40045 ft 417 kts 306°
2026-05-05 23:51 20.77426 -71.87374 40047 ft 417 kts 306°
2026-05-05 23:52 20.81021 -71.92232 40046 ft 417 kts 306°
2026-05-05 23:52 20.84613 -71.97092 40047 ft 417 kts 306°
2026-05-05 23:53 20.88209 -72.01959 40047 ft 417 kts 306°
2026-05-05 23:53 20.91799 -72.06826 40043 ft 417 kts 306°
2026-05-05 23:54 20.95388 -72.11693 40044 ft 417 kts 306°
2026-05-05 23:54 20.98977 -72.16565 40042 ft 417 kts 306°
2026-05-05 23:55 21.02567 -72.21441 40048 ft 417 kts 306°
2026-05-05 23:55 21.06152 -72.26315 40045 ft 417 kts 306°
2026-05-05 23:56 21.09737 -72.31195 40046 ft 417 kts 306°
2026-05-05 23:56 21.13320 -72.36075 40042 ft 417 kts 307°
2026-05-05 23:57 21.16876 -72.40924 40048 ft 417 kts 307°
2026-05-05 23:57 21.20455 -72.45807 40048 ft 416 kts 307°
2026-05-05 23:58 21.24028 -72.50687 40050 ft 416 kts 307°
2026-05-05 23:58 21.27603 -72.55573 40049 ft 416 kts 307°
2026-05-05 23:59 21.31170 -72.60454 40050 ft 416 kts 307°
2026-05-05 23:59 21.34737 -72.65338 40051 ft 416 kts 307°
2026-05-06 00:00 21.38299 -72.70221 40051 ft 415 kts 307°
2026-05-06 00:00 21.41856 -72.75099 40051 ft 415 kts 307°
2026-05-06 00:01 21.45409 -72.79977 40052 ft 415 kts 308°
2026-05-06 00:01 21.48957 -72.84853 40050 ft 414 kts 308°
2026-05-06 00:02 21.52499 -72.89724 40052 ft 413 kts 308°
2026-05-06 00:02 21.56036 -72.94593 40051 ft 413 kts 308°
2026-05-06 00:03 21.59567 -72.99459 40053 ft 413 kts 308°
2026-05-06 00:03 21.63094 -73.04323 40051 ft 412 kts 308°
2026-05-06 00:04 21.66612 -73.09178 40054 ft 411 kts 308°
2026-05-06 00:04 21.70122 -73.14027 40055 ft 411 kts 308°
2026-05-06 00:05 21.75374 -73.21291 40059 ft 410 kts 308°
2026-05-06 00:06 21.78867 -73.26128 40057 ft 409 kts 308°
2026-05-06 00:06 21.82354 -73.30960 40059 ft 408 kts 308°
2026-05-06 00:07 21.85832 -73.35784 40059 ft 408 kts 308°
2026-05-06 00:07 21.89306 -73.40607 40054 ft 407 kts 308°
2026-05-06 00:08 21.92770 -73.45419 40056 ft 406 kts 308°
2026-05-06 00:08 21.95645 -73.49418 40055 ft 406 kts 308°
2026-05-06 00:09 21.99095 -73.54220 40057 ft 405 kts 309°
2026-05-06 00:09 22.02541 -73.59021 40055 ft 404 kts 309°
2026-05-06 00:10 22.05978 -73.63812 40053 ft 404 kts 309°
2026-05-06 00:10 22.09410 -73.68602 40057 ft 403 kts 309°
2026-05-06 00:11 22.12834 -73.73384 40057 ft 403 kts 309°
2026-05-06 00:11 22.16255 -73.78167 40059 ft 402 kts 309°
2026-05-06 00:12 22.19665 -73.82939 40056 ft 401 kts 309°
2026-05-06 00:12 22.23069 -73.87706 40055 ft 401 kts 309°
2026-05-06 00:13 22.26469 -73.92471 40057 ft 400 kts 309°
2026-05-06 00:13 22.29862 -73.97231 40063 ft 400 kts 309°
2026-05-06 00:14 22.33224 -74.01954 40058 ft 399 kts 309°
2026-05-06 00:14 22.36605 -74.06705 40057 ft 399 kts 309°
2026-05-06 00:15 22.39979 -74.11452 40058 ft 398 kts 309°
2026-05-06 00:15 22.43349 -74.16197 40057 ft 398 kts 309°
2026-05-06 00:16 22.46713 -74.20937 40061 ft 397 kts 309°
2026-05-06 00:16 22.50069 -74.25672 40060 ft 396 kts 309°
2026-05-06 00:17 22.53419 -74.30400 40062 ft 396 kts 309°
2026-05-06 00:17 22.56765 -74.35129 40061 ft 396 kts 309°
2026-05-06 00:18 22.60106 -74.39855 40060 ft 395 kts 309°
2026-05-06 00:18 22.63442 -74.44578 40060 ft 395 kts 309°
2026-05-06 00:19 22.66776 -74.49301 40058 ft 394 kts 309°
2026-05-06 00:19 22.70105 -74.54023 40061 ft 394 kts 309°
2026-05-06 00:20 22.73430 -74.58742 40060 ft 394 kts 309°
2026-05-06 00:20 22.76751 -74.63459 40055 ft 394 kts 309°
2026-05-06 00:21 22.80066 -74.68175 40058 ft 393 kts 309°
2026-05-06 00:21 22.83378 -74.72888 40064 ft 393 kts 309°
2026-05-06 00:22 22.86687 -74.77602 40061 ft 393 kts 309°
2026-05-06 00:22 22.89992 -74.82315 40063 ft 392 kts 309°
2026-05-06 00:23 22.93291 -74.87023 40061 ft 392 kts 309°
2026-05-06 00:23 22.96585 -74.91729 40061 ft 391 kts 309°
2026-05-06 00:24 22.99873 -74.96431 40058 ft 391 kts 309°
2026-05-06 00:24 23.03136 -75.01099 40063 ft 390 kts 309°
2026-05-06 00:25 23.06415 -75.05796 40061 ft 390 kts 309°
2026-05-06 00:25 23.09691 -75.10493 40061 ft 390 kts 309°
2026-05-06 00:26 23.12959 -75.15184 40061 ft 389 kts 309°
2026-05-06 00:26 23.16223 -75.19873 40064 ft 389 kts 309°
2026-05-06 00:27 23.19483 -75.24561 40062 ft 389 kts 309°
2026-05-06 00:27 23.22739 -75.29248 40058 ft 388 kts 309°
2026-05-06 00:28 23.25990 -75.33932 40059 ft 388 kts 309°
2026-05-06 00:28 23.29238 -75.38615 40059 ft 388 kts 309°
2026-05-06 00:29 23.32480 -75.43295 40059 ft 387 kts 309°
2026-05-06 00:29 23.35721 -75.47977 40057 ft 387 kts 309°
2026-05-06 00:30 23.38958 -75.52657 40056 ft 387 kts 309°
2026-05-06 00:30 23.42191 -75.57335 40057 ft 387 kts 308°
2026-05-06 00:31 23.45421 -75.62014 40054 ft 386 kts 309°
2026-05-06 00:31 23.48649 -75.66695 40058 ft 386 kts 309°
2026-05-06 00:32 23.51872 -75.71373 40057 ft 386 kts 308°
2026-05-06 00:32 23.55091 -75.76048 40054 ft 386 kts 308°
2026-05-06 00:33 23.58309 -75.80726 40058 ft 385 kts 308°
2026-05-06 00:33 23.61522 -75.85403 40055 ft 385 kts 308°
2026-05-06 00:34 23.64732 -75.90079 40056 ft 385 kts 308°
2026-05-06 00:34 23.67937 -75.94752 40056 ft 385 kts 308°
2026-05-06 00:35 23.71139 -75.99425 40057 ft 384 kts 308°
2026-05-06 00:35 23.74341 -76.04102 40055 ft 384 kts 308°
2026-05-06 00:36 23.77538 -76.08776 40062 ft 384 kts 308°
2026-05-06 00:36 23.80731 -76.13449 40054 ft 384 kts 308°
2026-05-06 00:37 23.83901 -76.18091 40057 ft 384 kts 308°
2026-05-06 00:37 23.87087 -76.22764 40056 ft 383 kts 308°
2026-05-06 00:38 23.90271 -76.27436 40055 ft 383 kts 308°
2026-05-06 00:38 23.93454 -76.32112 40051 ft 383 kts 308°
2026-05-06 00:39 23.96632 -76.36785 40048 ft 383 kts 308°
2026-05-06 00:39 23.99807 -76.41456 40052 ft 383 kts 308°
2026-05-06 00:40 24.02979 -76.46129 40050 ft 382 kts 308°
2026-05-06 00:40 24.06150 -76.50804 40056 ft 382 kts 308°
2026-05-06 00:41 24.09308 -76.55465 39584 ft 382 kts 308°
2026-05-06 00:41 24.10899 -76.57814 38873 ft 386 kts 308°
2026-05-06 00:41 24.12496 -76.60172 38076 ft 387 kts 308°
2026-05-06 00:41 24.14102 -76.62548 37267 ft 389 kts 308°
2026-05-06 00:42 24.15715 -76.64933 36491 ft 390 kts 308°
2026-05-06 00:42 24.17333 -76.67327 35745 ft 392 kts 308°
2026-05-06 00:42 24.18962 -76.69739 35013 ft 395 kts 307°
2026-05-06 00:42 24.20596 -76.72159 34314 ft 397 kts 307°
2026-05-06 00:43 24.22240 -76.74595 33557 ft 398 kts 307°
2026-05-06 00:43 24.23891 -76.77043 32775 ft 400 kts 307°
2026-05-06 00:43 24.25544 -76.79495 32021 ft 401 kts 306°
2026-05-06 00:43 24.27205 -76.81960 31286 ft 403 kts 306°
2026-05-06 00:44 24.28876 -76.84441 30567 ft 405 kts 306°
2026-05-06 00:44 24.30530 -76.86899 29836 ft 407 kts 306°
2026-05-06 00:44 24.32212 -76.89398 29026 ft 408 kts 306°
2026-05-06 00:44 24.33896 -76.91903 28241 ft 408 kts 306°
2026-05-06 00:45 24.35581 -76.94409 27475 ft 408 kts 306°
2026-05-06 00:45 24.37263 -76.96914 26728 ft 408 kts 306°
2026-05-06 00:45 24.38948 -76.99423 26003 ft 408 kts 305°
2026-05-06 00:45 24.40626 -77.01924 25297 ft 407 kts 305°
2026-05-06 00:46 24.42306 -77.04427 24599 ft 407 kts 305°
2026-05-06 00:46 24.43978 -77.06922 23924 ft 406 kts 305°
2026-05-06 00:46 24.45651 -77.09420 23175 ft 405 kts 305°
2026-05-06 00:46 24.47318 -77.11909 22397 ft 405 kts 305°
2026-05-06 00:47 24.48986 -77.14399 21629 ft 405 kts 305°
2026-05-06 00:47 24.50651 -77.16888 20884 ft 405 kts 305°
2026-05-06 00:47 24.52316 -77.19378 20168 ft 404 kts 305°
2026-05-06 00:47 24.53980 -77.21869 19479 ft 404 kts 305°
2026-05-06 00:48 24.55644 -77.24360 18803 ft 404 kts 305°
2026-05-06 00:48 24.57305 -77.26848 18112 ft 404 kts 305°
2026-05-06 00:48 24.58967 -77.29336 17348 ft 404 kts 305°
2026-05-06 00:48 24.60629 -77.31828 16610 ft 403 kts 305°
2026-05-06 00:49 24.62282 -77.34308 15884 ft 402 kts 305°
2026-05-06 00:49 24.63932 -77.36785 15179 ft 401 kts 304°
2026-05-06 00:49 24.65578 -77.39256 14483 ft 400 kts 304°
2026-05-06 00:49 24.67200 -77.41691 13806 ft 383 kts 304°
2026-05-06 00:50 24.68705 -77.43955 13041 ft 352 kts 304°
2026-05-06 00:50 24.70085 -77.46068 12290 ft 329 kts 303°
2026-05-06 00:50 24.71381 -77.48062 11553 ft 312 kts 303°
2026-05-06 00:50 24.72622 -77.49964 10831 ft 300 kts 303°
2026-05-06 00:51 24.73820 -77.51788 10123 ft 290 kts 303°
2026-05-06 00:51 24.74988 -77.53555 9374 ft 282 kts 303°
2026-05-06 00:51 24.76178 -77.55230 8604 ft 276 kts 313°
2026-05-06 00:51 24.77792 -77.56294 7857 ft 270 kts 339°
2026-05-06 00:52 24.79640 -77.56704 7140 ft 272 kts 348°
2026-05-06 00:52 24.81496 -77.57073 6437 ft 270 kts 343°
2026-05-06 00:52 24.83246 -77.57682 6088 ft 253 kts 336°
2026-05-06 00:52 24.84848 -77.58355 5940 ft 244 kts 337°
2026-05-06 00:53 24.86447 -77.58978 5750 ft 244 kts 339°
2026-05-06 00:53 24.88059 -77.59574 5562 ft 245 kts 339°
2026-05-06 00:53 24.89679 -77.60179 5381 ft 249 kts 339°
2026-05-06 00:53 24.91326 -77.60857 5209 ft 256 kts 332°
2026-05-06 00:54 24.92839 -77.61916 5063 ft 260 kts 323°
2026-05-06 00:54 24.94304 -77.63103 4922 ft 263 kts 321°
2026-05-06 00:54 24.95776 -77.64322 4803 ft 265 kts 321°
2026-05-06 00:54 24.97247 -77.65550 4668 ft 266 kts 321°
2026-05-06 00:55 24.98718 -77.66781 4541 ft 264 kts 321°
2026-05-06 00:55 25.00169 -77.67999 4411 ft 260 kts 321°
2026-05-06 00:55 25.01595 -77.69196 4268 ft 255 kts 321°
2026-05-06 00:55 25.02998 -77.70375 4123 ft 252 kts 321°
2026-05-06 00:56 25.04387 -77.71544 3967 ft 251 kts 321°
2026-05-06 00:56 25.05775 -77.72713 3811 ft 251 kts 321°
2026-05-06 00:56 25.07160 -77.73882 3666 ft 251 kts 321°
2026-05-06 00:56 25.08073 -77.74654 3627 ft 249 kts 321°
2026-05-06 00:57 25.09898 -77.76195 3563 ft 247 kts 321°
2026-05-06 00:57 25.10802 -77.76957 3535 ft 247 kts 321°
2026-05-06 00:57 25.12165 -77.78107 3489 ft 247 kts 321°
2026-05-06 00:57 25.13527 -77.79259 3451 ft 247 kts 321°
2026-05-06 00:58 25.14893 -77.80409 3409 ft 247 kts 321°
2026-05-06 00:58 25.16262 -77.81563 3367 ft 248 kts 321°
2026-05-06 00:58 25.17634 -77.82720 3327 ft 249 kts 321°
2026-05-06 00:58 25.19111 -77.83709 3258 ft 252 kts 340°
2026-05-06 00:59 25.20853 -77.83827 3174 ft 256 kts 10°
2026-05-06 00:59 25.22440 -77.82969 3106 ft 258 kts 40°
2026-05-06 00:59 25.23457 -77.81353 3026 ft 259 kts 69°
2026-05-06 00:59 25.23884 -77.79426 3006 ft 257 kts 79°
2026-05-06 01:00 25.24176 -77.77482 3010 ft 256 kts 81°
2026-05-06 01:00 25.24448 -77.75549 3012 ft 254 kts 81°
2026-05-06 01:00 25.24714 -77.73626 3007 ft 253 kts 81°
2026-05-06 01:00 25.24978 -77.71714 3007 ft 252 kts 81°
2026-05-06 01:01 25.25238 -77.69806 3004 ft 251 kts 82°
2026-05-06 01:01 25.25059 -77.67912 2994 ft 250 kts 111°
2026-05-06 01:01 25.24045 -77.66387 2996 ft 248 kts 142°
2026-05-06 01:01 25.22475 -77.65595 2716 ft 254 kts 171°
2026-05-06 01:02 25.20726 -77.65379 2369 ft 254 kts 160°
2026-05-06 01:02 25.19458 -77.64103 2216 ft 248 kts 120°
2026-05-06 01:02 25.18579 -77.62518 2134 ft 238 kts 129°
2026-05-06 01:02 25.17440 -77.61221 2008 ft 232 kts 137°
2026-05-06 01:03 25.16313 -77.60002 1998 ft 222 kts 135°
2026-05-06 01:03 25.15254 -77.58793 1911 ft 217 kts 135°
2026-05-06 01:03 25.14182 -77.57611 1734 ft 218 kts 136°
2026-05-06 01:03 25.13179 -77.56482 1705 ft 187 kts 135°
2026-05-06 01:04 25.12336 -77.55546 1686 ft 162 kts 136°
2026-05-06 01:04 25.11574 -77.54695 1685 ft 152 kts 136°
2026-05-06 01:04 25.10839 -77.53875 1558 ft 147 kts 136°
2026-05-06 01:04 25.10148 -77.53105 1377 ft 138 kts 136°
2026-05-06 01:05 25.09478 -77.52358 1203 ft 136 kts 136°
2026-05-06 01:05 25.08815 -77.51621 1030 ft 134 kts 136°
2026-05-06 01:05 25.08173 -77.50892 864 ft 131 kts 136°
2026-05-06 01:05 25.07537 -77.50184 701 ft 130 kts 138°
2026-05-06 01:06 25.06902 -77.49471 543 ft 129 kts 136°
2026-05-06 01:06 25.06278 -77.48761 384 ft 129 kts 137°
2026-05-06 01:06 25.05635 -77.48059 196 ft 128 kts 138°
2026-05-06 01:06 25.05014 -77.47379 22 ft 130 kts 134°
2026-05-06 01:07 25.04441 -77.46744 17 ft 92 kts 135°
2026-05-06 01:07 25.04140 -77.46409 15 ft 24 kts 111°
2026-05-06 01:07 25.04145 -77.46347 16 ft 4 kts 99°
2026-05-06 01:07 25.04124 -77.46289 16 ft 11 kts 108°
2026-05-06 01:08 25.04098 -77.46205 17 ft 10 kts 109°
2026-05-06 01:08 25.04092 -77.46185 17 ft 0 kts 108°
2026-05-06 01:08 25.04089 -77.46175 17 ft 3 kts 108°
2026-05-06 01:08 25.04087 -77.46166 16 ft 0 kts 108°
2026-05-06 01:09 25.04085 -77.46159 16 ft 2 kts 109°
2026-05-06 01:09 25.04073 -77.46122 16 ft 8 kts 109°
2026-05-06 01:09 25.04063 -77.46072 16 ft 2 kts 23°
2026-05-06 01:10 25.04102 -77.46103 16 ft 10 kts 313°
2026-05-06 01:10 25.04164 -77.46173 16 ft 15 kts 315°
2026-05-06 01:10 25.04241 -77.46258 16 ft 13 kts 315°
2026-05-06 01:10 25.04318 -77.46344 16 ft 18 kts 314°
2026-05-06 01:11 25.04411 -77.46450 16 ft 19 kts 316°
2026-05-06 01:11 25.04482 -77.46482 16 ft 12 kts 58°
2026-05-06 01:11 25.04543 -77.46408 16 ft 11 kts 46°
2026-05-06 01:11 25.04603 -77.46329 16 ft 13 kts 52°
2026-05-06 01:12 25.04635 -77.46308 16 ft 0 kts 205°
2026-05-06 01:12 25.04634 -77.46308 16 ft 0 kts 204°
2026-05-06 01:12 25.04630 -77.46310 16 ft 0 kts 203°